Slovakia

User info

Welcome, Guest! Please login or register.


You are here » Slovakia » Vzdelávanie


Vzdelávanie

Topics 1 to 25 of 25

Topic Replies Views Last post
1 15 2023-10-27 16:53:03 by ucepexa
2 HR by Mordor
1 21 2023-10-11 13:42:00 by ysnyba
1 18 2023-08-16 12:16:33 by ysnyba
4 Power BI by Mordor
1 14 2023-08-16 11:23:52 by kydunga
1 15 2023-08-14 17:11:13 by kydunga
1 15 2023-08-09 16:54:20 by kydunga
1 25 2023-07-19 10:30:54 by kydunga
8 Scrum by ysnyba
1 21 2023-07-18 16:10:35 by kydunga
1 15 2023-06-14 16:01:41 by kydunga
1 9 2023-06-07 16:55:33 by kydunga
11 Webináře zdarma by Mordor
1 10 2023-06-07 13:24:10 by kydunga
1 13 2023-05-17 15:10:30 by kydunga
1 11 2023-05-17 13:34:43 by kydunga
14 Art Director by Mordor
1 10 2023-05-12 16:33:06 by kydunga
1 13 2023-05-12 10:46:39 by Kakzac
16 HR by Mordor
1 17 2023-05-11 13:17:39 by Kakzac
1 10 2023-05-10 17:26:46 by Kakzac
18 Online tanfolyamok by kydunga
3 14 2023-04-06 16:00:34 by Kakzac
1 14 2023-03-16 15:24:24 by tavawu
1 13 2023-03-14 15:59:44 by tavawu
1 20 2023-01-31 20:25:59 by tavawu
22 PPC marketing by Kakzac
1 17 2023-01-14 14:34:21 by tavawu
23 Test by Kakzac
1 8 2022-11-08 14:21:58 by tavawu
24 Webináře zdarma by Kakzac
1 19 2022-10-14 14:02:12 by tavawu
25 PPC a gyakorlatban by Kakzac
1 15 2022-10-13 13:37:37 by tavawu

You are here » Slovakia » Vzdelávanie